User: anonymous   Login
Location: Fremont
(37.5480°N, 121.9880°W)
Time: 20:17:54
(UTC-07:00)
Language:

Cosmos 1766 - Orbit

View from above orbital plane
View from above orbital plane
View from above satellite
View from above satellite

Ground track
Ground track

The orbit data is extracted from the following two-line orbital elements,

1 16881U 86055A   14304.40508283  .00005017  00000-0  33847-3 0    48
2 16881 082.5106 240.6947 0014916 111.9363 248.3452 15.06339942536706
Epoch (UTC): 31 October 2014 09:43:19
Eccentricity: 0.0014916
inclination: 82.5106°
perigee height: 537 km
apogee height: 558 km
right ascension of ascending node: 240.6947°
argument of perigee: 111.9363°
revolutions per day: 15.06339942
mean anomaly at epoch: 248.3452°
orbit number at epoch: 53670

The dashed part of the orbit path shows where the satellite is in the earth's shadow,  

DLR